Flag for Germany Weather past 2 weeks in Paderborn, North Rhine-Westphalia, Germany

Now
50 °F

Passing clouds.


Feels Like: 48 °F
Forecast: 51 / 76 °F
Wind: 5 mph from Southeast

Location: Paderborn / Lippstadt

Current Time: Aug 1, 2015 at 6:14:04 AM

Latest Report: Aug 1, 2015 at 5:20 AM


Visibility: N/A

Pressure: 30.01 "Hg

Humidity: 67%

Dew point: 39 °F

Location of PaderbornLocation

Historic Weather in Paderborn — Graph

°F

Paderborn temperature yesterday

Maximum temperature yesterday: 63 °F (at 3:20 PM)
Minimum temperature yesterday: 43 °F (at 6:20 AM)
Average temperature yesterday: 53 °F

Past Weeks' High & Low Weather Summary

 TemperatureHumidityPressure
High88 °F (Jul 17, 4:50 PM)100% (Jul 19, 7:50 AM)30.15 "Hg (Jul 19, 7:50 AM)
Low43 °F (Jul 31, 6:20 AM)21% (Jul 17, 4:50 PM)29.53 "Hg (Jul 25, 9:50 AM)
Average62 °F71%29.88 "Hg
* Reported Jul 17 4:20 AM — Aug 1 4:50 AM, Paderborn, Weather by CustomWeather, © 2015

Note: Actual official high and low records may vary slightly from our data, if they occured in-between our weather recording intervals... More about our weather records

Advertising

Paderborn weather history for previous 24 hours

 ConditionsComfort  
Time TempWeatherWind HumidityBarometerVisibility
4:50 AM
Sat, Aug 1
52 °FClear.5 mph62%30.01 "Hg10 mi
4:20 AM50 °FClear.6 mph67%30.04 "Hg10 mi
3:50 AM48 °FClear.6 mph76%30.04 "Hg10 mi
3:20 AM50 °FClear.7 mph71%30.04 "Hg10 mi
2:50 AM48 °FClear.7 mph76%30.04 "Hg10 mi
2:20 AM46 °FClear.6 mph82%30.04 "Hg10 mi
1:50 AM48 °FClear.5 mph76%30.07 "Hg10 mi
1:20 AM48 °FClear.6 mph76%30.07 "Hg10 mi
12:50 AM50 °FClear.6 mph71%30.07 "Hg10 mi
12:20 AM48 °FClear.5 mph76%30.07 "Hg10 mi
11:50 PM
Fri, Jul 31
50 °FClear.6 mph71%30.07 "Hg10 mi
11:20 PM48 °FClear.6 mph76%30.07 "Hg10 mi
10:50 PM50 °FClear.6 mph71%30.07 "Hg10 mi
10:20 PM52 °FClear.6 mph72%30.07 "Hg10 mi
9:50 PM52 °FSunny.2 mph62%30.07 "Hg10 mi
9:20 PM54 °FSunny.1 mph58%30.07 "Hg10 mi
8:50 PM57 °FSunny.2 mph51%30.07 "Hg10 mi
8:20 PM59 °FPassing clouds.3 mph45%30.07 "HgN/A
7:50 PM61 °FPassing clouds.3 mph42%30.07 "HgN/A
7:20 PM61 °FSunny.3 mph45%30.07 "Hg10 mi
6:50 PM61 °FPassing clouds.5 mph42%30.07 "HgN/A
6:20 PM61 °FSunny.5 mph39%30.09 "Hg10 mi
5:50 PM63 °FPassing clouds.3 mph45%30.09 "HgN/A
5:20 PM61 °FSunny.5 mph42%30.09 "Hg10 mi
4:50 PM61 °FSunny.3 mph42%30.09 "Hg10 mi
4:20 PM63 °FSunny.2 mph39%30.09 "Hg10 mi
3:50 PM59 °FPassing clouds.2 mph48%30.09 "HgN/A
3:20 PM63 °FPassing clouds.6 mph42%30.12 "HgN/A
2:50 PM59 °FScattered clouds.3 mph45%30.12 "HgN/A
2:20 PM61 °FScattered clouds.5 mph45%30.12 "HgN/A
1:50 PM59 °FScattered clouds.5 mph42%30.12 "HgN/A
1:20 PM57 °FScattered clouds.6 mph55%30.12 "HgN/A
12:50 PM59 °FScattered clouds.6 mph55%30.15 "HgN/A
12:20 PM57 °FScattered clouds.7 mph59%30.15 "HgN/A
11:50 AM57 °FScattered clouds.5 mph55%30.12 "HgN/A
11:20 AM57 °FScattered clouds.5 mph63%30.12 "HgN/A
10:50 AM55 °FScattered clouds.6 mph67%30.12 "HgN/A
10:20 AM54 °FScattered clouds.5 mph72%30.15 "HgN/A
9:20 AM52 °FScattered clouds.5 mph82%30.15 "HgN/A
8:50 AM50 °FScattered clouds.6 mph76%30.15 "HgN/A
8:20 AM50 °FScattered clouds.6 mph82%30.12 "HgN/A
7:50 AM48 °FScattered clouds.6 mph87%30.12 "HgN/A
7:20 AM46 °FScattered clouds.7 mph93%30.12 "HgN/A
6:50 AM45 °FPassing clouds.5 mph93%30.12 "HgN/A
6:20 AM43 °FClear.7 mph93%30.09 "Hg10 mi
Weather by CustomWeather, © 2015

See weather overviewHow to use our weather pages